"Pseudo-MPEC" for P11DBXY

Created 2023 Mar 25 14:22:07 UT using Find_Orb

Click here for an explanation of pseudo-MPECs

 
 Astrometry: 
     P11DBXY* C2023 03 18By.k@1$*@SClh55U;%:]+fwWSAstrometrymp_!uUCNchIOGSoTPF51
     P11DBXY  C2023 03 18bB?Qredacted;wZVclick8=;Xos2CK=r:Gj\ps)Ih^Shere*r[$,F51
     P11DBXY  C2023 03 18kp$-(sZ:i#efor`vFCj6mexplanationc@pQXI6^uq'cf+poXPcGF51
     P11DBXY 1C2023 03 24.97849 12 29 16.13 +41 36 42.9    ~3P0b 21.6 VXNEOCP033
     P11DBXY 1C2023 03 24.98210 12 29 15.77 +41 36 43.9    ~3P0b 21.8 VXNEOCP033
     P11DBXY 1C2023 03 24.98570 12 29 15.56 +41 36 44.7    ~3P0b 20.6 VXNEOCP033
     P11DBXY KC2023 03 25.47328 12 28 36.59 +41 39 25.3    ~3PC7 21.7 RoNEOCP291
     P11DBXY KC2023 03 25.48050 12 28 36.03 +41 39 27.5    ~3PC7 22.2 RoNEOCP291
     P11DBXY KC2023 03 25.48771 12 28 35.40 +41 39 29.6    ~3PC7 22.4 RoNEOCP291

Station data:
(033) Karl Schwarzschild Observatory, Tautenburg  (N50.980137 E11.711240)
   Germany.  Observers S. Melnikov, C. Hoegner, B. Stecklum. Measurer B.
   Stecklum. 1.34-m f/3 Schmidt + CCD.
(291) LPL/Spacewatch II  (N31.961669 W111.599905)  US/Arizona.  Observers J.
   V. Scotti, R. S. McMillan. 1.8-m f/2.7 reflector + CCD.
(F51) Pan-STARRS 1, Haleakala  (N20.707234 W156.255910)  US/Hawaii.
   Observers J. Bulger, T. Lowe, A. Schultz, M. Willman. Measurers K.
   Chambers, S. Chastel, T. de Boer, L. Denneau, J. Fairlamb, H. Flewelling,
   M. Huber, C.-C. Lin, E. Magnier, Y. Ramanjooloo, R. Wainscoat, R. Weryk.
   1.8-m Ritchey-Chrétien + CCD.

Orbital elements:  P11DBXY
   Perihelion 2021 Dec 10.47168 +/- 19.9 TT = 11:19:13 (JD 2459558.97168)
Epoch 2023 Mar 25.0 TT = JDT 2460028.5   Earth MOID: 0.7280      AutoNEOCP
M 179.64327732 +/- 7                (J2000 ecliptic)
n   0.38260371 +/- 0.00111          Peri.  257.73788 +/- 5.0
a   1.87918670 +/- 0.00362          Node    98.88349 +/- 0.6
e   0.1329839 +/- 0.00586           Incl.   23.69003 +/- 0.15
P   2.58/940.90d           H 18.72  G  0.15   U  8.3
q 1.62928506 +/- 0.00974    Q 2.12908834 +/- 0.0136
From 9 observations 2023 Mar. 18-25; mean residual 0".22
Residuals in arcseconds: 
230318 F51  .07+  .10-    230324 033  .19+  .26+    230325 291  .01-  .00     
230318 F51  .03-  .05-    230324 033  .55-  .05+    230325 291  .26+  .05+    
230318 F51  .05-  .15+    230324 033  .38+  .36-    230325 291  .27-  .00     

Ephemerides (geocentric):
Date (UTC) HH   RA             Dec           delta  r     elong  mag " sig PA
---- --------  ------------   ------------  ------ ------ -----  --- --------
2023 03 25 14  12 28 28.309   +41 40 00.62  1.2920 2.1291 136.5 21.9 .265   8
2023 03 25 15  12 28 25.016   +41 40 13.72  1.2921 2.1291 136.5 21.9 .304   9
2023 03 25 16  12 28 21.722   +41 40 26.76  1.2922 2.1291 136.5 21.9 .344   9
2023 03 25 17  12 28 18.428   +41 40 39.74  1.2923 2.1291 136.5 21.9 .384  10
2023 03 25 18  12 28 15.135   +41 40 52.67  1.2924 2.1291 136.4 21.9 .424  10
2023 03 25 19  12 28 11.841   +41 41 05.53  1.2926 2.1291 136.4 21.9 .465  10
2023 03 25 20  12 28 08.547   +41 41 18.34  1.2927 2.1291 136.4 21.9 .507  10
2023 03 25 21  12 28 05.253   +41 41 31.08  1.2928 2.1291 136.4 21.9 .549  11
2023 03 25 22  12 28 01.959   +41 41 43.77  1.2929 2.1291 136.4 21.9 .591  11
2023 03 25 23  12 27 58.665   +41 41 56.40  1.2930 2.1291 136.4 21.9 .634  11
2023 03 26 00  12 27 55.371   +41 42 08.96  1.2932 2.1291 136.3 21.9 .677  11
2023 03 26 01  12 27 52.077   +41 42 21.47  1.2933 2.1291 136.3 21.9 .721  11
2023 03 26 02  12 27 48.783   +41 42 33.92  1.2934 2.1291 136.3 21.9 .765  11
2023 03 26 03  12 27 45.489   +41 42 46.31  1.2935 2.1291 136.3 21.9 .810  11
2023 03 26 04  12 27 42.195   +41 42 58.64  1.2936 2.1291 136.3 21.9 .855  11
2023 03 26 05  12 27 38.901   +41 43 10.91  1.2938 2.1291 136.3 21.9 .900  11
2023 03 26 06  12 27 35.607   +41 43 23.12  1.2939 2.1291 136.2 21.9 .946  11
2023 03 26 07  12 27 32.313   +41 43 35.27  1.2940 2.1291 136.2 21.9 0.99  11
2023 03 26 08  12 27 29.019   +41 43 47.36  1.2941 2.1291 136.2 21.9 1.04  11
2023 03 26 09  12 27 25.725   +41 43 59.39  1.2943 2.1291 136.2 21.9 1.09  11
2023 03 26 10  12 27 22.431   +41 44 11.36  1.2944 2.1291 136.2 21.9 1.13  11
2023 03 26 11  12 27 19.138   +41 44 23.28  1.2945 2.1291 136.2 21.9 1.18  12
2023 03 26 12  12 27 15.844   +41 44 35.13  1.2946 2.1291 136.1 21.9 1.23  12
2023 03 26 13  12 27 12.551   +41 44 46.92  1.2948 2.1291 136.1 21.9 1.28  12
2023 03 26 14  12 27 09.258   +41 44 58.66  1.2949 2.1291 136.1 21.9 1.33  12
2023 03 26 15  12 27 05.964   +41 45 10.33  1.2950 2.1291 136.1 21.9 1.38  12
2023 03 26 16  12 27 02.671   +41 45 21.95  1.2952 2.1291 136.1 21.9 1.43  12
2023 03 26 17  12 26 59.378   +41 45 33.50  1.2953 2.1291 136.0 21.9 1.48  12
2023 03 26 18  12 26 56.086   +41 45 45.00  1.2954 2.1291 136.0 21.9 1.53  12
2023 03 26 19  12 26 52.793   +41 45 56.43  1.2955 2.1291 136.0 21.9 1.58  12
2023 03 26 20  12 26 49.501   +41 46 07.81  1.2957 2.1291 136.0 21.9 1.64  11
2023 03 26 21  12 26 46.208   +41 46 19.13  1.2958 2.1291 136.0 21.9 1.69  11
2023 03 26 22  12 26 42.916   +41 46 30.38  1.2959 2.1291 136.0 21.9 1.74  11
2023 03 26 23  12 26 39.624   +41 46 41.58  1.2960 2.1291 135.9 21.9 1.79  11
2023 03 27 00  12 26 36.333   +41 46 52.72  1.2962 2.1291 135.9 21.9 1.85  11
2023 03 27 01  12 26 33.041   +41 47 03.80  1.2963 2.1291 135.9 21.9 1.90  11
2023 03 27 02  12 26 29.750   +41 47 14.82  1.2964 2.1291 135.9 21.9 1.96  11
2023 03 27 03  12 26 26.459   +41 47 25.78  1.2966 2.1291 135.9 21.9 2.01  11
2023 03 27 04  12 26 23.168   +41 47 36.68  1.2967 2.1291 135.8 21.9 2.07  11
2023 03 27 05  12 26 19.878   +41 47 47.52  1.2968 2.1291 135.8 21.9 2.12  11
2023 03 27 06  12 26 16.588   +41 47 58.30  1.2970 2.1291 135.8 21.9 2.18  11
2023 03 27 07  12 26 13.298   +41 48 09.02  1.2971 2.1291 135.8 21.9 2.24  11
2023 03 27 08  12 26 10.008   +41 48 19.68  1.2972 2.1291 135.8 21.9 2.30  11
2023 03 27 09  12 26 06.718   +41 48 30.28  1.2974 2.1291 135.8 21.9 2.35  11
2023 03 27 10  12 26 03.429   +41 48 40.82  1.2975 2.1291 135.7 21.9 2.41  11
2023 03 27 11  12 26 00.141   +41 48 51.31  1.2976 2.1291 135.7 21.9 2.47  11
2023 03 27 12  12 25 56.852   +41 49 01.73  1.2978 2.1291 135.7 21.9 2.53  11
2023 03 27 13  12 25 53.564   +41 49 12.09  1.2979 2.1291 135.7 21.9 2.59  11